DW6723 Weather Reports


Display with metric or nautical units.
time (UTC)temp
F
wind
direction
speed
MPH
gust
MPH
rain 1hr
in
rain 24hr
in
rain mn
in
humidity
%
barometer
mb
20260901191507 64 93 5.0 9.0 0.00 0.13 0.13 90 1017.9
20260901190004 64 76 5.0 9.0 0.00 0.13 0.13 90 1017.9
20260901184608 64 67 5.0 10.0 0.00 0.13 0.13 90 1017.9
20260901183105 64 79 7.0 8.0 0.00 0.13 0.13 90 1017.9
20260901181551 64 72 6.0 7.0 0.00 0.13 0.13 90 1017.8
20260901180051 63 82 7.0 9.0 0.00 0.13 0.13 90 1017.7
20260901174552 63 90 4.0 7.0 0.00 0.13 0.13 90 1017.5
20260901173051 63 111 3.0 8.0 0.00 0.13 0.13 90 1017.6
20260901171556 63 79 4.0 8.0 0.00 0.13 0.13 89 1017.9
20260901170050 62 74 7.0 9.0 0.00 0.13 0.13 90 1017.8
20260901164548 63 79 6.0 8.0 0.00 0.13 0.13 90 1018.0
20260901163041 62 34 6.0 8.0 0.00 0.13 0.13 90 1018.0
20260901161536 63 58 5.0 6.0 0.00 0.13 0.13 90 1017.9
20260901160039 63 94 4.0 7.0 0.00 0.13 0.13 91 1017.6
20260901154557 62 71 6.0 8.0 0.00 0.13 0.13 91 1017.6
20260901153043 62 73 4.0 8.0 0.00 0.13 0.13 92 1017.8
20260901151534 62 108 3.0 9.0 0.00 0.13 0.13 92 1017.7
20260901150033 62 82 5.0 9.0 0.02 0.13 0.13 93 1017.6
20260901144536 62 71 5.0 6.0 0.03 0.13 0.13 93 1017.7
20260901143021 61 96 5.0 7.0 0.04 0.13 0.13 93 1017.4
20260901141522 61 77 3.0 6.0 0.07 0.13 0.13 93 1017.4
20260901140021 61 95 1.0 3.0 0.07 0.11 0.11 93 1017.6
20260901134520 61 115 0.0 2.0 0.08 0.10 0.10 93 1017.7
20260901133020 61 50 1.0 2.0 0.09 0.09 0.09 93 1018.0
20260901131519 61 42 1.0 3.0 0.06 0.06 0.06 92 1018.2
20260901130017 61 10 0.0 4.0 0.04 0.04 0.04 92 1018.2
20260901124534 61 22 3.0 6.0 0.02 0.02 0.02 91 1018.3
20260901123002 62 24 3.0 6.0 0.00 0.00 0.00 89 1018.3
20260901121605 63 63 1.0 3.0 0.00 0.00 0.00 85 1018.2
20260901120111 63 98 0.0 2.0 0.00 0.00 0.00 86 1017.9
20260901114606 63 54 2.0 3.0 0.00 0.00 0.00 85 1017.9
20260901113101 63 22 1.0 5.0 0.00 0.00 0.00 86 1017.7
20260901111603 63 355 1.0 3.0 0.00 0.00 0.00 86 1017.6
20260901110058 63 349 2.0 3.0 0.00 0.00 0.00 87 1017.5
20260901104557 63 14 2.0 4.0 0.00 0.00 0.00 87 1017.3
20260901103054 63 12 1.0 2.0 0.00 0.00 0.00 87 1017.1
20260901101543 63 19 1.0 2.0 0.00 0.00 0.00 88 1016.9
20260901100042 63 65 0.0 2.0 0.00 0.00 0.00 89 1016.7
20260901094547 63 57 2.0 3.0 0.00 0.00 0.00 88 1016.7
20260901093041 63 67 1.0 3.0 0.00 0.00 0.00 88 1016.8
20260901091538 64 42 0.0 4.0 0.00 0.00 0.00 88 1016.8
20260901090036 65 101 1.0 2.0 0.00 0.00 0.00 86 1016.6
20260901084535 66 101 0.0 2.0 0.00 0.00 0.00 85 1016.5
20260901083023 66 244 0.0 0.0 0.00 0.00 0.00 81 1016.7
20260901081522 66 244 0.0 2.0 0.00 0.00 0.00 79 1016.6
20260901080032 66 236 0.0 3.0 0.00 0.00 0.00 80 1016.7
20260901074521 66 227 0.0 2.0 0.00 0.00 0.00 80 1016.8
20260901073021 66 240 0.0 3.0 0.00 0.00 0.00 81 1017.0
20260901071519 66 238 0.0 3.0 0.00 0.00 0.00 81 1016.9
20260901070020 66 246 0.0 4.0 0.00 0.00 0.00 82 1017.1
20260901064522 66 234 1.0 4.0 0.00 0.00 0.00 83 1017.0
20260901063018 65 254 2.0 4.0 0.00 0.00 0.00 85 1017.1
20260901061505 65 221 1.0 4.0 0.00 0.00 0.00 86 1017.1
20260901060005 65 256 0.0 3.0 0.00 0.00 0.00 87 1017.3
20260901054506 65 252 1.0 2.0 0.00 0.00 0.00 87 1017.3
20260901053002 65 285 0.0 2.0 0.00 0.00 0.00 86 1017.4
20260901051502 65 274 1.0 4.0 0.00 0.00 0.00 86 1017.2
20260901050001 65 239 2.0 4.0 0.00 0.00 0.00 86 1017.2
20260901044605 65 245 1.0 3.0 0.00 0.00 0.00 85 1017.4
20260901043043 65 232 0.0 2.0 0.00 0.00 0.00 85 1017.4
20260901041541 65 257 0.0 4.0 0.00 0.00 0.00 84 1017.6
20260901040029 65 232 1.0 4.0 0.00 0.00 0.00 84 1017.4
20260901034537 64 242 0.0 0.0 0.00 0.00 0.00 84 1017.5
20260901033028 64 261 0.0 0.0 0.00 0.00 0.00 83 1017.5
20260901031535 64 221 0.0 2.0 0.00 0.00 0.00 83 1017.6
20260901030026 64 221 0.0 2.0 0.00 0.00 0.00 82 1017.5
20260901024526 64 221 0.0 2.0 0.00 0.00 0.00 82 1017.5
20260901023027 64 269 0.0 3.0 0.00 0.00 0.00 81 1017.5
20260901021527 64 254 1.0 3.0 0.00 0.00 0.00 80 1017.5
20260901020006 64 228 1.0 3.0 0.00 0.00 0.00 79 1017.5
20260901014505 65 256 1.0 2.0 0.00 0.00 0.00 78 1017.6
20260901013004 65 243 0.0 2.0 0.00 0.00 0.00 77 1017.6
20260901011505 65 232 1.0 3.0 0.00 0.00 0.00 76 1017.7
20260901010002 65 223 1.0 6.0 0.00 0.00 0.00 76 1017.6
20260901004600 65 217 0.0 4.0 0.00 0.00 0.00 74 1017.7
20260901004502 65 220 1.0 4.0 0.00 0.00 0.00 74 1017.7
20260901003058 66 204 1.0 3.0 0.00 0.00 0.00 73 1017.7
20260901001600 66 179 2.0 6.0 0.00 0.00 0.00 72 1017.5
20260901000045 66 202 2.0 8.0 0.00 0.00 0.00 71 1017.5
20260831234550 67 197 3.0 5.0 0.00 0.00 0.00 69 1017.6
20260831233046 67 186 5.0 8.0 0.00 0.00 0.00 68 1017.8
20260831231538 68 214 4.0 8.0 0.00 0.00 0.00 66 1017.8
20260831230039 68 171 3.0 9.0 0.00 0.00 0.00 65 1017.9
20260831224535 69 202 2.0 7.0 0.00 0.00 0.00 64 1018.0
20260831223030 70 186 3.0 10.0 0.00 0.00 0.00 64 1018.0
20260831221529 71 189 6.0 10.0 0.00 0.00 0.00 64 1018.0
20260831220012 71 173 5.0 10.0 0.00 0.00 0.00 64 1017.9
20260831214511 71 175 6.0 13.0 0.00 0.00 0.00 63 1017.9
20260831213102 71 150 5.0 14.0 0.00 0.00 0.00 64 1018.0
20260831211558 72 171 10.0 16.0 0.00 0.00 0.00 63 1017.9
20260831210055 73 167 5.0 14.0 0.00 0.00 0.00 63 1018.0
20260831204556 71 170 6.0 11.0 0.00 0.00 0.00 67 1018.1
20260831203059 70 360 6.0 13.0 0.00 0.00 0.00 70 1018.2
20260831201555 70 139 8.0 14.0 0.00 0.00 0.00 69 1018.2
20260831200046 70 360 7.0 13.0 0.00 0.00 0.00 69 1018.2
20260831194546 69 118 10.0 18.0 0.00 0.00 0.00 70 1018.2
20260831193114 70 117 9.0 14.0 0.00 0.00 0.00 69 1018.2